Regional Weather Roundup
Issued by NWS San Angelo, TX

Current Version | Previous Version | Text Only | Print | Product List | Glossary On
Versions: 1 2 3 4 5 6 7 8 9 10 11 12 13 14 15 16 17 18 19 20 21 22 23 24 25 26 27 28 29 30 31 32 33 34 35 36 37 38 39 40 41 42 43 44 45 46 47 48 49 50
298
ASUS44 KSJT 061111
RWRSJT
WEST CENTRAL TEXAS REGIONAL WEATHER ROUNDUP
NATIONAL WEATHER SERVICE SAN ANGELO TX
500 AM CST SAT FEB 06 2016

NOTE: "FAIR" INDICATES FEW OR NO CLOUDS BELOW 12,000 FEET WITH NO
SIGNIFICANT WEATHER AND/OR OBSTRUCTIONS TO VISIBILITY.

TXZ049-054-064>066-071>073-076>078-098-099-113-114-127-128-139-140-
154-155-168>170-061200
...LOCATIONS ACROSS WEST CENTRAL TEXAS...

CITY           SKY/WX    TMP DP  RH WIND       PRES   REMARKS
SAN ANGELO     CLEAR     31  20  63 W7        30.38S WCI  24
ABILENE        CLEAR     37  22  54 NW16      30.32R WCI  28
DYESS AFB      CLEAR     36  22  57 NW14      30.33R WCI  27
JUNCTION       CLEAR     29  19  66 W3        30.36F
SWEETWATER     CLEAR     32  21  62 W8        30.39R WCI  25
BROWNWOOD      PTCLDY    39  23  52 NW16G23   30.30R WCI  30
COLEMAN        SUNNY     40  23  49 NW13G22   30.31S WCI  33
SONORA         PTCLDY    36  19  51 CALM      30.42S
OZONA          FAIR      30  21  69 SW3       30.41F
BRADY          NOT AVBL
$$

TEXAS PANHANDLE/OKLAHOMA PANHANDLE

CITY           SKY/WX    TMP DP  RH WIND       PRES   REMARKS
AMARILLO       CLEAR     21  15  78 W7        30.35F WCI  12
BORGER         CLEAR     26  16  65 NW8       30.36F WCI  18
CANADIAN       CLEAR     28  20  74 NW5       30.35S WCI  22
DALHART        CLOUDY    17  10  74 NW8       30.34F WCI   7
DUMAS          SUNNY     19  13  77 W10       30.34F WCI   7
GUYMON         NOT AVBL
HEREFORD       NOT AVBL
PAMPA          SUNNY     20  17  86 NW9       30.35S WCI  10
PERRYTON       CLEAR     24  20  83 W8        30.34S WCI  15
$$

SOUTHERN PANHANDLE/SOUTH PLAINS/ROLLING PLAINS

CITY           SKY/WX    TMP DP  RH WIND       PRES   REMARKS
LUBBOCK        CLEAR     20  15  81 NW6       30.36S WCI  12
SNYDER           N/A     30  19  64 W5        30.38R WCI  25
CHILDRESS      CLEAR     31  20  63 N15       30.35R WCI  20
SEMINOLE       SUNNY     24  17  73 W6        30.41S WCI  17
$$

PERMIAN BASIN

CITY           SKY/WX    TMP DP  RH WIND       PRES   REMARKS
MIDLAND        CLEAR     28  18  66 W9        30.40F WCI  19
ODESSA         CLEAR     28  17  63 NW7       30.41S WCI  21
WINK           CLEAR     24  15  68 N5        30.43S WCI  18
$$

FAR WEST/SOUTHWEST MOUNTAINS/TRANS PECOS

CITY           SKY/WX    TMP DP  RH WIND       PRES   REMARKS
ALPINE         CLOUDY    18  10  73 S6        30.49S WCI  10
DRYDEN           N/A     38  17  42 NW9       30.42S WCI  31
EL PASO        PTCLDY    28   6  39 E3        30.43F
FORT STOCKTON  CLEAR     32  18  56 SW12      30.45R WCI  23
GUADALUPE PASS CLOUDY    29  11  47 SW14      30.41S WCI  18
MARFA          CLOUDY    15   7  70 N6        30.45R WCI   6
PECOS          MOSUNNY   26  13  58 W9        30.46S WCI  16
$$

DALLAS/FORT WORTH METROPLEX

CITY           SKY/WX    TMP DP  RH WIND       PRES   REMARKS
DFW AIRPORT    PTCLDY    37  32  82 E3        30.21R
FTW MEACHAM    CLEAR     39  28  64 NW6       30.21S WCI  35
DAL-EXECUTIVE  CLEAR     37  34  89 CALM      30.20S
GRAND PRAIRIE  PTCLDY    39  34  83 CALM      30.23R
ADDISON        NOT AVBL
MESQUITE       MOSUNNY   39  37  91 E7        30.23R WCI  34
LANCASTER      SUNNY     36  33  90 CALM      30.22S
$$

NORTH CENTRAL TEXAS

CITY           SKY/WX    TMP DP  RH WIND       PRES   REMARKS
SHRMAN/DENISON DRIZZLE   42  37  82 E9        30.25R WCI  36
GAINESVILLE    CLOUDY    41  32  70 NE6       30.25R WCI  37
BRIDGEPORT     SUNNY     37  28  68 W6        30.24R WCI  33
DENTON         PTCLDY    37  30  75 CALM      30.22R
WAXAHACHIE     MOSUNNY   37  37 100 CALM      30.22S
GRANBURY       SUNNY     38  28  67 W9        30.24S WCI  32
$$

WESTERN NORTH TEXAS

CITY           SKY/WX    TMP DP  RH WIND       PRES   REMARKS
WICHITA FALLS  PTCLDY    38  33  82 N18       30.27R WCI  28
VERNON         MOSUNNY   36  21  55 NW17      30.34R WCI  25
BRECKENRIDGE   SUNNY     41  29  64 NW14G20   30.29R WCI  33
COMANCHE       CLEAR     40  27  58 W14G21    30.27R WCI  32
$$

CENTRAL AND SOUTH CENTRAL TEXAS

CITY           SKY/WX    TMP DP  RH WIND       PRES   REMARKS
AUSTIN/BERGSTM CLEAR     42  37  82 SW5       30.31S WCI  39
WACO           PTCLDY    39  27  62 W8        30.25S WCI  33
HILLSBORO      MOSUNNY   36  29  78 SW3       30.23R
TEMPLE         CLEAR     44  25  47 W15       30.26F WCI  37
KILLEEN-GRAY   CLEAR     42  22  44 W14       30.26S WCI  35
FORT HOOD      CLEAR     44  22  40 W15       30.24S WCI  37
GEORGETOWN     CLEAR     43  27  52 W14       30.28F WCI  36
LAGO VISTA     FAIR      44  30  58 W14G21    30.30S WCI  37
SAN MARCOS     CLEAR     43  37  81 W7        30.33S WCI  39
NEW BRAUNFELS  CLEAR     42  38  85 NW8       30.32S WCI  37
RANDOLPH AFB   CLEAR     44  39  81 W6        30.34R
SAN ANTONIO    PTCLDY    41  38  89 NW5       30.34S WCI  38
STINSON        CLEAR     48  39  71 NW7       30.33F
PLEASANTON     NOT AVBL
LA GRANGE      CLEAR     44  40  86 CALM      30.30S
GIDDINGS       MOSUNNY   41  40  96 CALM      30.33F
$$

EAST TEXAS

CITY           SKY/WX    TMP DP  RH WIND       PRES   REMARKS
PARIS          CLOUDY    39  25  56 CALM      30.30S
CLARKSVILLE    NOT AVBL
TYLER          CLOUDY    43  38  82 SE8       30.25R WCI  38
LONGVIEW       LGT RAIN  40  36  86 S5        30.30R WCI  37
PALESTINE      MOSUNNY   40  37  92 SE3       30.27S
NACOGDOCHES    CLOUDY    39  36  87 CALM      30.32R
$$

TEXAS HILL COUNTRY AND EDWARDS PLATEAU

CITY           SKY/WX    TMP DP  RH WIND       PRES   REMARKS
LLANO          SUNNY     43  23  45 W12       30.36S WCI  37
HORSESHOE BAY  FAIR      44  25  47 W6        30.32F
KERRVILLE      CLEAR     32  27  82 N5        30.35S WCI  28
FREDERICKSBRG  CLEAR     40  21  45 NW9       30.33S WCI  35
ROCKSPRINGS    SUNNY     37  21  52 N9        30.37F WCI  31
HONDO          CLEAR     35  30  82 N6        30.38S WCI  30
UVALDE         SUNNY     37  33  85 NW3       30.39S
DEL RIO        CLEAR     40  24  53 W3        30.42R
$$

SOUTHEAST TEXAS

CITY           SKY/WX    TMP DP  RH WIND       PRES   REMARKS
COLLEGE STN    PTCLDY    41  39  93 S3        30.28F
CALDWELL       MOSUNNY   39  39 100 SW3       30.32S
CROCKETT       CLOUDY    41  39  93 SE7       30.30S WCI  36
BRENHAM        PTCLDY    44  43  95 CALM      30.31R
HUNTSVILLE     CLOUDY    44  41  89 S10       30.28F WCI  39
CONROE         LGT RAIN  41  38  89 CALM      30.33R
HOUSTON BUSH   MOCLDY    43  37  79 CALM      30.27F
HOUSTON HOBBY  PTCLDY    46  42  86 CALM      30.27F
PERLAND        CLEAR     46  42  86 CALM      30.29F
WHARTON        SUNNY     41  39  95 W12G28    30.31R WCI  34
$$

THE UPPER TEXAS COAST

CITY           SKY/WX    TMP DP  RH WIND       PRES   REMARKS
ORANGE         DRIZZLE   42  37  83 CALM      30.32F
PORT ARTHUR    CLOUDY    46  41  82 NE5       30.30F
GALVESTON      CLEAR     50  45  83 SE8       30.29F
ANGLETON       CLEAR     43  42  97 CALM      30.28S FOG
BAY CITY       SUNNY     44  44  99 CALM      30.28R
$$

TEXAS COASTAL BEND, RIO GRANDE PLAINS DEEP SOUTH TEXAS

CITY           SKY/WX    TMP DP  RH WIND       PRES   REMARKS
VICTORIA       MOCLDY    47  43  86 NW6G36    30.34R
BEEVILLE       FAIR      43  43  99 NW9       30.32R WCI  38
ROCKPORT       CLEAR     47  46  97 W5        30.30S
PORT ARANSAS   SUNNY     51  51 100 CALM      30.30S
PORT LAVACA    SUNNY     43  43  98 CALM      30.30R
CORPUS CHRISTI CLEAR     44  40  85 W6        30.32R
KINGSVILLE NAS PTCLDY    45  44  97 W7        30.33R
COTULLA        CLEAR     42  38  85 W3        30.37S
LAREDO         PTCLDY    45  39  79 NW9       30.39R
BROWNSVILLE    CLOUDY    56  53  90 NW6       30.31S
PORT ISABEL    CLEAR     56  53  90 W6        30.30S
HEBBRONVILLE   NOT AVBL
MCALLEN        PTCLDY    50  46  86 NW5       30.34R
WESLACO        CLEAR     49  46  89 NW6       30.33R
FALFURRIAS     MOSUNNY   46  42  86 CALM      30.34R
EDINBURG       MOSUNNY   48  44  87 NW6       30.34R
$$




USA.gov is the U.S. government's official web portal to all federal, state and local government web resources and services.